QPF
0.00 0.01 0.01 0.00 0.00 0.00 0.01 0.00 0.00 0.00 0.00 0.00 0.00 0.00 0.00 0.00 0.00 0.00 0.01 0.01 0.01 0.00 0.00 0.00 0.00 0.00 0.00 0.01 0.01 0.03 0.03 0.04 0.05 0.05 0.03 0.04 0.03 0.01 0.00 0.00 0.01 0.00 0.00 0.01
0.00 0.01 0.01 0.00 0.00 0.00 0.00 0.00 0.00 0.00 0.00 0.00 0.00 0.00 0.00 0.00 0.00 0.00 0.00 0.00 0.01 0.01 0.01 0.01 0.01 0.00 0.00 0.00 0.01 0.02 0.02 0.03 0.03 0.04 0.03 0.03 0.02 0.01 0.01 0.01 0.01 0.00 0.00 0.00
0.00 0.00 0.00 0.00 0.00 0.00 0.00 0.00 0.00 0.00 0.00 0.00 0.00 0.00 0.00 0.00 0.00 0.00 0.00 0.00 0.00 0.00 0.00 0.01 0.00 0.00 0.00 0.01 0.01 0.02 0.02 0.02 0.02 0.02 0.02 0.02 0.01 0.01 0.01 0.01 0.01 0.00 0.00 0.01
0.00 0.00 0.00 0.00 0.00 0.00 0.00 0.00 0.00 0.00 0.00 0.00 0.00 0.00 0.00 0.00 0.00 0.00 0.00 0.00 0.00 0.00 0.00 0.00 0.00 0.00 0.00 0.00 0.00 0.01 0.01 0.01 0.01 0.01 0.01 0.01 0.01 0.01 0.01 0.01 0.01 0.01 0.01 0.01
0.00 0.00 0.00 0.00 0.00 0.00 0.00 0.00 0.00 0.00 0.00 0.00 0.00 0.00 0.00 0.00 0.00 0.00 0.00 0.00 0.00 0.00 0.00 0.00 0.00 0.00 0.00 0.00 0.00 0.00 0.00 0.01 0.01 0.00 0.01 0.01 0.02 0.02 0.02 0.01 0.01 0.01 0.01 0.00
0.00 0.00 0.00 0.00 0.00 0.00 0.00 0.00 0.01 0.01 0.01 0.01 0.00 0.00 0.00 0.00 0.00 0.00 0.00 0.00 0.00 0.00 0.00 0.00 0.00 0.00 0.00 0.00 0.00 0.00 0.00 0.00 0.00 0.00 0.00 0.01 0.01 0.02 0.02 0.01 0.01 0.01 0.01 0.01
0.00 0.00 0.00 0.00 0.00 0.00 0.00 0.00 0.01 0.01 0.01 0.00 0.00 0.00 0.00 0.00 0.00 0.00 0.00 0.00 0.00 0.00 0.00 0.00 0.00 0.00 0.00 0.00 0.01 0.00 0.00 0.00 0.01 0.01 0.00 0.00 0.01 0.01 0.01 0.02 0.01 0.01 0.01 0.02
0.00 0.00 0.00 0.00 0.00 0.00 0.00 0.00 0.01 0.01 0.00 0.00 0.00 0.00 0.00 0.00 0.00 0.00 0.00 0.00 0.00 0.00 0.00 0.00 0.00 0.00 0.00 0.00 0.00 0.00 0.01 0.01 0.02 0.02 0.01 0.01 0.01 0.02 0.02 0.02 0.02 0.01 0.01 0.02
0.00 0.00 0.00 0.00 0.00 0.00 0.00 0.00 0.00 0.00 0.00 0.00 0.00 0.00 0.00 0.00 0.00 0.00 0.00 0.00 0.00 0.00 0.00 0.00 0.00 0.00 0.00 0.00 0.00 0.01 0.01 0.02 0.02 0.02 0.03 0.04 0.04 0.04 0.03 0.03 0.03 0.02 0.01 0.01
0.00 0.00 0.00 0.00 0.00 0.00 0.00 0.00 0.00 0.00 0.01 0.00 0.00 0.00 0.00 0.00 0.00 0.00 0.00 0.00 0.00 0.00 0.00 0.00 0.00 0.00 0.00 0.00 0.00 0.00 0.01 0.01 0.01 0.02 0.03 0.04 0.04 0.02 0.03 0.04 0.04 0.02 0.01 0.01
0.00 0.00 0.00 0.00 0.00 0.00 0.00 0.00 0.00 0.00 0.00 0.00 0.00 0.00 0.00 0.00 0.00 0.00 0.00 0.00 0.00 0.00 0.00 0.00 0.00 0.00 0.00 0.00 0.00 0.01 0.01 0.01 0.01 0.01 0.01 0.01 0.01 0.01 0.01 0.02 0.03 0.03 0.02 0.01
0.00 0.00 0.00 0.00 0.00 0.00 0.00 0.00 0.00 0.00 0.00 0.00 0.00 0.00 0.00 0.00 0.00 0.00 0.00 0.00 0.00 0.00 0.00 0.00 0.00 0.00 0.00 0.00 0.00 0.00 0.01 0.01 0.01 0.01 0.01 0.01 0.00 0.00 0.00 0.01 0.02 0.02 0.02 0.02
0.00 0.00 0.00 0.00 0.00 0.00 0.00 0.00 0.00 0.00 0.00 0.00 0.00 0.00 0.00 0.00 0.00 0.00 0.00 0.00 0.00 0.00 0.00 0.00 0.00 0.00 0.00 0.00 0.00 0.00 0.00 0.00 0.00 0.01 0.00 0.00 0.00 0.00 0.00 0.01 0.02 0.02 0.02 0.02
0.00 0.00 0.00 0.00 0.00 0.00 0.00 0.00 0.00 0.00 0.00 0.00 0.00 0.00 0.00 0.00 0.00 0.00 0.00 0.00 0.00 0.00 0.00 0.00 0.00 0.01 0.01 0.01 0.00 0.00 0.00 0.00 0.00 0.00 0.00 0.00 0.00 0.00 0.00 0.01 0.01 0.01 0.02 0.02
0.01 0.00 0.00 0.00 0.00 0.00 0.00 0.00 0.00 0.00 0.00 0.00 0.00 0.00 0.00 0.00 0.00 0.00 0.00 0.00 0.00 0.00 0.00 0.00 0.01 0.01 0.01 0.01 0.01 0.00 0.00 0.00 0.00 0.00 0.00 0.00 0.00 0.01 0.01 0.01 0.01 0.01 0.02 0.03
0.02 0.01 0.00 0.00 0.00 0.00 0.00 0.00 0.00 0.00 0.00 0.00 0.00 0.00 0.00 0.00 0.00 0.00 0.00 0.00 0.00 0.00 0.00 0.00 0.00 0.00 0.01 0.01 0.01 0.01 0.00 0.00 0.00 0.00 0.00 0.00 0.00 0.00 0.01 0.01 0.01 0.01 0.02 0.03
0.01 0.01 0.00 0.00 0.00 0.00 0.00 0.00 0.00 0.00 0.00 0.00 0.00 0.00 0.00 0.00 0.00 0.00 0.00 0.00 0.00 0.00 0.00 0.00 0.00 0.00 0.01 0.01 0.01 0.01 0.00 0.01 0.00 0.00 0.00 0.00 0.00 0.00 0.01 0.01 0.01 0.01 0.01 0.03
0.01 0.01 0.01 0.00 0.00 0.00 0.00 0.00 0.00 0.00 0.00 0.00 0.00 0.00 0.00 0.00 0.00 0.00 0.00 0.00 0.00 0.00 0.01 0.01 0.01 0.01 0.01 0.01 0.01 0.01 0.01 0.01 0.01 0.00 0.00 0.00 0.00 0.00 0.01 0.01 0.01 0.01 0.01 0.02
0.00 0.01 0.02 0.01 0.01 0.00 0.00 0.00 0.00 0.00 0.00 0.00 0.00 0.00 0.00 0.00 0.00 0.00 0.00 0.00 0.00 0.01 0.01 0.01 0.00 0.00 0.00 0.01 0.01 0.01 0.01 0.01 0.01 0.01 0.01 0.01 0.00 0.01 0.01 0.01 0.01 0.01 0.01 0.02
0.00 0.01 0.02 0.02 0.01 0.01 0.00 0.00 0.00 0.00 0.00 0.00 0.00 0.00 0.00 0.00 0.00 0.00 0.00 0.00 0.00 0.00 0.00 0.00 0.00 0.00 0.01 0.01 0.01 0.01 0.01 0.01 0.01 0.01 0.01 0.01 0.01 0.01 0.01 0.01 0.01 0.01 0.01 0.02
0.00 0.01 0.01 0.02 0.02 0.01 0.00 0.00 0.00 0.00 0.00 0.00 0.00 0.00 0.00 0.00 0.00 0.00 0.00 0.00 0.00 0.00 0.00 0.00 0.00 0.00 0.01 0.01 0.01 0.00 0.01 0.01 0.01 0.01 0.01 0.01 0.00 0.01 0.01 0.01 0.01 0.01 0.02 0.02
0.00 0.00 0.01 0.01 0.02 0.02 0.00 0.00 0.01 0.01 0.00 0.00 0.00 0.00 0.00 0.00 0.00 0.00 0.00 0.01 0.01 0.00 0.00 0.00 0.00 0.00 0.01 0.00 0.00 0.00 0.00 0.00 0.00 0.01 0.00 0.00 0.00 0.00 0.01 0.00 0.01 0.01 0.01 0.02
0.01 0.01 0.01 0.01 0.01 0.01 0.01 0.01 0.01 0.01 0.01 0.00 0.00 0.00 0.00 0.00 0.00 0.01 0.01 0.01 0.01 0.01 0.01 0.00 0.00 0.00 0.00 0.00 0.00 0.01 0.01 0.00 0.00 0.00 0.00 0.00 0.00 0.00 0.01 0.01 0.01 0.01 0.01 0.02
0.02 0.02 0.01 0.01 0.01 0.00 0.00 0.01 0.01 0.01 0.00 0.00 0.00 0.00 0.00 0.00 0.01 0.01 0.00 0.01 0.01 0.01 0.01 0.00 0.00 0.00 0.01 0.01 0.01 0.01 0.01 0.01 0.01 0.00 0.00 0.00 0.00 0.00 0.01 0.01 0.01 0.01 0.01 0.02
0.01 0.01 0.02 0.02 0.02 0.01 0.01 0.01 0.00 0.00 0.00 0.00 0.00 0.00 0.00 0.00 0.00 0.00 0.00 0.00 0.00 0.00 0.00 0.00 0.00 0.01 0.01 0.01 0.01 0.01 0.00 0.00 0.01 0.01 0.00 0.00 0.00 0.00 0.01 0.01 0.02 0.02 0.02 0.03
0.01 0.01 0.01 0.01 0.01 0.01 0.02 0.01 0.00 0.00 0.00 0.00 0.00 0.00 0.00 0.00 0.00 0.00 0.00 0.00 0.00 0.00 0.00 0.00 0.00 0.00 0.00 0.01 0.01 0.01 0.01 0.01 0.01 0.01 0.01 0.01 0.01 0.01 0.01 0.02 0.03 0.03 0.03 0.03
MSLP
1016.64 1017.51 1018.44 1019.34 1020.15 1020.81 1021.29 1021.57 1021.66 1021.59 1021.40 1021.12 1020.81 1020.49 1020.18 1019.90 1019.65 1019.43 1019.25 1019.10 1019.00 1018.93 1018.90 1018.91 1018.96 1019.05 1019.16 1019.30 1019.46 1019.63 1019.81 1020.00 1020.18 1020.34 1020.47 1020.57 1020.60 1020.58 1020.49 1020.34 1020.15 1019.95 1019.76 1019.62
1017.27 1017.93 1018.62 1019.30 1019.94 1020.48 1020.92 1021.22 1021.39 1021.43 1021.36 1021.18 1020.92 1020.61 1020.25 1019.89 1019.54 1019.23 1018.97 1018.78 1018.66 1018.61 1018.64 1018.71 1018.82 1018.96 1019.11 1019.27 1019.43 1019.61 1019.80 1020.01 1020.23 1020.45 1020.65 1020.82 1020.94 1020.98 1020.94 1020.83 1020.66 1020.46 1020.27 1020.11
1017.80 1018.22 1018.67 1019.13 1019.58 1020.02 1020.42 1020.75 1021.01 1021.17 1021.22 1021.14 1020.93 1020.61 1020.21 1019.76 1019.30 1018.89 1018.55 1018.31 1018.19 1018.18 1018.26 1018.41 1018.60 1018.79 1018.98 1019.17 1019.34 1019.52 1019.72 1019.95 1020.21 1020.49 1020.76 1021.00 1021.19 1021.30 1021.32 1021.25 1021.12 1020.94 1020.75 1020.59
1018.15 1018.36 1018.59 1018.85 1019.15 1019.50 1019.88 1020.27 1020.63 1020.90 1021.06 1021.06 1020.88 1020.55 1020.08 1019.52 1018.95 1018.43 1018.01 1017.74 1017.62 1017.65 1017.80 1018.03 1018.30 1018.56 1018.80 1019.01 1019.20 1019.39 1019.59 1019.83 1020.11 1020.43 1020.76 1021.07 1021.33 1021.50 1021.59 1021.58 1021.48 1021.34 1021.18 1021.04
1018.29 1018.33 1018.39 1018.50 1018.71 1019.01 1019.40 1019.85 1020.30 1020.68 1020.93 1020.98 1020.81 1020.44 1019.88 1019.21 1018.52 1017.90 1017.40 1017.09 1016.98 1017.05 1017.28 1017.60 1017.95 1018.28 1018.58 1018.82 1019.02 1019.20 1019.40 1019.64 1019.93 1020.27 1020.63 1021.00 1021.32 1021.56 1021.71 1021.76 1021.73 1021.64 1021.52 1021.41
1018.26 1018.18 1018.13 1018.15 1018.31 1018.60 1019.03 1019.55 1020.09 1020.55 1020.85 1020.93 1020.74 1020.29 1019.64 1018.85 1018.04 1017.31 1016.75 1016.41 1016.31 1016.43 1016.73 1017.13 1017.56 1017.97 1018.31 1018.57 1018.77 1018.94 1019.13 1019.35 1019.64 1019.99 1020.38 1020.78 1021.15 1021.45 1021.67 1021.79 1021.83 1021.81 1021.75 1021.69
1018.11 1017.96 1017.86 1017.86 1018.01 1018.33 1018.81 1019.40 1020.00 1020.50 1020.83 1020.89 1020.65 1020.12 1019.35 1018.45 1017.53 1016.71 1016.09 1015.73 1015.65 1015.82 1016.18 1016.65 1017.15 1017.61 1017.98 1018.25 1018.45 1018.60 1018.76 1018.97 1019.24 1019.58 1019.98 1020.41 1020.83 1021.19 1021.48 1021.67 1021.79 1021.84 1021.86 1021.87
1017.90 1017.74 1017.64 1017.66 1017.84 1018.21 1018.74 1019.36 1019.99 1020.51 1020.82 1020.83 1020.51 1019.89 1019.02 1018.02 1017.01 1016.13 1015.47 1015.10 1015.04 1015.24 1015.65 1016.17 1016.71 1017.19 1017.58 1017.85 1018.04 1018.17 1018.30 1018.48 1018.73 1019.07 1019.48 1019.93 1020.39 1020.81 1021.16 1021.44 1021.63 1021.77 1021.87 1021.96
1017.71 1017.57 1017.50 1017.56 1017.79 1018.20 1018.76 1019.40 1020.02 1020.51 1020.76 1020.71 1020.31 1019.60 1018.65 1017.58 1016.52 1015.60 1014.93 1014.56 1014.50 1014.73 1015.16 1015.69 1016.24 1016.73 1017.10 1017.36 1017.52 1017.63 1017.74 1017.90 1018.14 1018.48 1018.91 1019.39 1019.89 1020.36 1020.78 1021.13 1021.41 1021.63 1021.81 1021.97
1017.56 1017.47 1017.45 1017.56 1017.83 1018.26 1018.82 1019.45 1020.02 1020.45 1020.63 1020.49 1020.02 1019.25 1018.25 1017.15 1016.08 1015.16 1014.50 1014.14 1014.10 1014.32 1014.73 1015.24 1015.76 1016.21 1016.55 1016.77 1016.91 1016.99 1017.09 1017.25 1017.51 1017.86 1018.31 1018.83 1019.37 1019.90 1020.38 1020.80 1021.15 1021.45 1021.70 1021.93
1017.48 1017.44 1017.47 1017.62 1017.90 1018.33 1018.86 1019.42 1019.92 1020.26 1020.36 1020.15 1019.63 1018.84 1017.85 1016.77 1015.74 1014.87 1014.24 1013.91 1013.85 1014.05 1014.41 1014.86 1015.30 1015.68 1015.95 1016.13 1016.23 1016.31 1016.41 1016.58 1016.86 1017.26 1017.75 1018.31 1018.90 1019.48 1020.01 1020.49 1020.91 1021.26 1021.57 1021.86
1017.45 1017.45 1017.52 1017.68 1017.96 1018.36 1018.82 1019.30 1019.70 1019.94 1019.96 1019.70 1019.17 1018.40 1017.47 1016.48 1015.54 1014.76 1014.19 1013.88 1013.82 1013.96 1014.24 1014.58 1014.91 1015.18 1015.37 1015.48 1015.54 1015.61 1015.73 1015.94 1016.26 1016.70 1017.25 1017.85 1018.49 1019.11 1019.69 1020.22 1020.67 1021.07 1021.43 1021.75
1017.45 1017.49 1017.57 1017.73 1017.98 1018.31 1018.69 1019.06 1019.35 1019.50 1019.45 1019.18 1018.67 1017.98 1017.16 1016.31 1015.51 1014.84 1014.36 1014.08 1014.00 1014.07 1014.25 1014.45 1014.64 1014.78 1014.86 1014.89 1014.91 1014.97 1015.11 1015.36 1015.73 1016.23 1016.82 1017.47 1018.14 1018.80 1019.41 1019.95 1020.44 1020.86 1021.24 1021.58
1017.50 1017.55 1017.64 1017.77 1017.97 1018.22 1018.49 1018.74 1018.93 1018.99 1018.90 1018.63 1018.19 1017.62 1016.95 1016.28 1015.65 1015.13 1014.74 1014.51 1014.41 1014.40 1014.45 1014.51 1014.54 1014.52 1014.48 1014.43 1014.40 1014.45 1014.60 1014.89 1015.30 1015.84 1016.47 1017.15 1017.84 1018.50 1019.12 1019.67 1020.16 1020.59 1020.98 1021.33
1017.60 1017.66 1017.74 1017.84 1017.97 1018.12 1018.28 1018.42 1018.50 1018.49 1018.36 1018.12 1017.77 1017.33 1016.85 1016.37 1015.94 1015.58 1015.30 1015.12 1015.00 1014.92 1014.85 1014.75 1014.62 1014.46 1014.29 1014.15 1014.07 1014.09 1014.25 1014.55 1014.99 1015.55 1016.19 1016.87 1017.55 1018.20 1018.80 1019.33 1019.81 1020.23 1020.62 1020.98
1017.80 1017.86 1017.91 1017.97 1018.03 1018.09 1018.14 1018.16 1018.14 1018.06 1017.91 1017.71 1017.44 1017.15 1016.86 1016.57 1016.33 1016.13 1015.98 1015.85 1015.73 1015.59 1015.41 1015.18 1014.91 1014.61 1014.33 1014.10 1013.96 1013.94 1014.08 1014.38 1014.81 1015.35 1015.97 1016.62 1017.26 1017.87 1018.42 1018.92 1019.37 1019.77 1020.15 1020.51
1018.11 1018.17 1018.21 1018.23 1018.23 1018.20 1018.14 1018.05 1017.93 1017.78 1017.61 1017.42 1017.24 1017.08 1016.94 1016.85 1016.78 1016.74 1016.70 1016.63 1016.52 1016.35 1016.09 1015.76 1015.38 1014.97 1014.59 1014.28 1014.08 1014.02 1014.13 1014.38 1014.77 1015.27 1015.83 1016.41 1016.98 1017.52 1018.01 1018.45 1018.86 1019.24 1019.60 1019.96
1018.56 1018.63 1018.66 1018.65 1018.59 1018.47 1018.32 1018.12 1017.91 1017.69 1017.48 1017.30 1017.17 1017.10 1017.10 1017.15 1017.23 1017.32 1017.38 1017.39 1017.31 1017.13 1016.84 1016.45 1016.00 1015.52 1015.08 1014.71 1014.45 1014.34 1014.39 1014.59 1014.91 1015.32 1015.79 1016.27 1016.75 1017.20 1017.61 1017.99 1018.34 1018.69 1019.03 1019.38
1019.11 1019.19 1019.23 1019.19 1019.09 1018.91 1018.67 1018.39 1018.08 1017.79 1017.53 1017.34 1017.23 1017.22 1017.29 1017.44 1017.64 1017.84 1017.99 1018.07 1018.04 1017.89 1017.60 1017.20 1016.73 1016.23 1015.75 1015.34 1015.05 1014.89 1014.88 1015.00 1015.23 1015.54 1015.89 1016.27 1016.63 1016.98 1017.30 1017.61 1017.91 1018.21 1018.53 1018.86
1019.70 1019.80 1019.84 1019.80 1019.67 1019.45 1019.15 1018.79 1018.41 1018.05 1017.74 1017.52 1017.40 1017.41 1017.53 1017.74 1018.01 1018.28 1018.51 1018.66 1018.69 1018.58 1018.34 1017.97 1017.52 1017.03 1016.56 1016.15 1015.83 1015.63 1015.56 1015.60 1015.74 1015.94 1016.18 1016.43 1016.69 1016.93 1017.16 1017.40 1017.64 1017.90 1018.18 1018.49
1020.24 1020.36 1020.42 1020.38 1020.24 1020.00 1019.67 1019.27 1018.84 1018.42 1018.07 1017.81 1017.68 1017.68 1017.81 1018.05 1018.35 1018.67 1018.96 1019.17 1019.26 1019.22 1019.04 1018.73 1018.34 1017.91 1017.47 1017.08 1016.75 1016.53 1016.41 1016.38 1016.43 1016.53 1016.66 1016.80 1016.95 1017.10 1017.26 1017.42 1017.61 1017.82 1018.06 1018.33
1020.64 1020.78 1020.85 1020.83 1020.70 1020.47 1020.14 1019.73 1019.29 1018.86 1018.48 1018.20 1018.05 1018.03 1018.16 1018.40 1018.71 1019.05 1019.38 1019.63 1019.78 1019.81 1019.70 1019.47 1019.16 1018.79 1018.41 1018.06 1017.76 1017.52 1017.37 1017.28 1017.26 1017.28 1017.32 1017.38 1017.44 1017.52 1017.60 1017.71 1017.84 1018.00 1018.19 1018.40
1020.83 1020.98 1021.07 1021.07 1020.98 1020.78 1020.49 1020.12 1019.71 1019.30 1018.94 1018.67 1018.51 1018.49 1018.60 1018.82 1019.13 1019.47 1019.81 1020.08 1020.28 1020.36 1020.32 1020.17 1019.94 1019.65 1019.34 1019.04 1018.76 1018.54 1018.37 1018.25 1018.18 1018.14 1018.11 1018.11 1018.11 1018.13 1018.16 1018.22 1018.30 1018.41 1018.54 1018.70
1020.81 1020.94 1021.04 1021.08 1021.04 1020.91 1020.69 1020.40 1020.06 1019.73 1019.42 1019.19 1019.06 1019.04 1019.15 1019.35 1019.64 1019.96 1020.28 1020.56 1020.77 1020.89 1020.90 1020.82 1020.66 1020.44 1020.19 1019.94 1019.71 1019.50 1019.33 1019.20 1019.10 1019.03 1018.97 1018.92 1018.89 1018.87 1018.87 1018.88 1018.92 1018.98 1019.06 1019.15
1020.59 1020.71 1020.82 1020.89 1020.91 1020.87 1020.75 1020.58 1020.36 1020.13 1019.92 1019.77 1019.69 1019.70 1019.80 1019.99 1020.25 1020.53 1020.82 1021.08 1021.28 1021.40 1021.44 1021.40 1021.28 1021.12 1020.92 1020.72 1020.52 1020.34 1020.19 1020.06 1019.95 1019.86 1019.79 1019.72 1019.67 1019.63 1019.60 1019.59 1019.60 1019.62 1019.64 1019.66
1020.27 1020.36 1020.48 1020.59 1020.68 1020.73 1020.73 1020.69 1020.62 1020.53 1020.44 1020.39 1020.38 1020.43 1020.54 1020.72 1020.94 1021.18 1021.41 1021.62 1021.78 1021.88 1021.92 1021.88 1021.79 1021.66 1021.50 1021.34 1021.17 1021.02 1020.88 1020.76 1020.65 1020.57 1020.49 1020.42 1020.36 1020.31 1020.27 1020.24 1020.21 1020.19 1020.16 1020.13
Thickness
5745 5739 5732 5735 5737 5736 5732 5727 5724 5727 5733 5728 5725 5725 5729 5733 5729 5729 5730 5731 5730 5730 5732 5731 5729 5728 5727 5726 5724 5723 5721 5719 5717 5714 5712 5710 5708 5708 5706 5705 5703 5702 5702 5701
5734 5728 5736 5738 5736 5732 5728 5724 5724 5726 5730 5727 5724 5724 5731 5732 5730 5730 5731 5730 5730 5729 5729 5728 5726 5725 5724 5722 5721 5719 5717 5715 5713 5709 5708 5707 5705 5704 5703 5700 5699 5698 5697 5696
5726 5731 5735 5731 5727 5724 5724 5723 5723 5721 5723 5725 5722 5721 5727 5731 5731 5730 5730 5731 5731 5728 5728 5726 5723 5722 5721 5719 5717 5715 5713 5712 5709 5706 5704 5702 5700 5699 5698 5696 5694 5693 5692 5691
5727 5732 5729 5726 5724 5725 5719 5727 5725 5720 5717 5717 5718 5710 5723 5727 5726 5727 5728 5729 5728 5728 5727 5725 5722 5719 5717 5716 5714 5712 5710 5708 5706 5703 5700 5698 5695 5693 5693 5692 5691 5689 5687 5686
5724 5727 5724 5721 5724 5725 5723 5726 5723 5720 5718 5715 5717 5712 5722 5726 5722 5726 5728 5728 5728 5728 5727 5724 5721 5718 5716 5714 5711 5709 5706 5704 5702 5700 5697 5694 5692 5691 5690 5688 5686 5685 5684 5682
5726 5730 5728 5726 5727 5727 5723 5721 5718 5718 5715 5702 5713 5709 5713 5725 5724 5725 5728 5728 5727 5727 5725 5723 5720 5717 5713 5710 5707 5704 5702 5699 5698 5695 5694 5691 5689 5687 5684 5683 5681 5680 5680 5678
5716 5721 5726 5728 5720 5720 5720 5712 5700 5697 5697 5703 5712 5707 5714 5727 5728 5726 5725 5726 5726 5724 5722 5718 5715 5712 5709 5705 5702 5700 5698 5695 5694 5692 5690 5689 5686 5684 5681 5679 5678 5677 5676 5675
5705 5705 5718 5722 5720 5716 5716 5714 5698 5688 5692 5703 5706 5704 5719 5726 5726 5725 5725 5724 5721 5720 5718 5715 5712 5709 5706 5702 5699 5697 5695 5691 5689 5687 5686 5684 5682 5679 5677 5675 5674 5673 5673 5672
5707 5705 5717 5719 5721 5720 5711 5711 5715 5705 5701 5695 5704 5710 5718 5722 5720 5720 5720 5718 5716 5716 5714 5711 5709 5705 5703 5699 5696 5694 5691 5688 5685 5683 5681 5678 5677 5674 5672 5670 5669 5668 5668 5667
5714 5703 5710 5713 5714 5711 5715 5714 5706 5698 5685 5684 5696 5701 5707 5712 5714 5715 5714 5714 5714 5712 5710 5707 5705 5702 5699 5697 5693 5690 5687 5684 5681 5679 5676 5673 5671 5669 5667 5665 5663 5663 5663 5662
5710 5702 5702 5705 5703 5704 5703 5702 5702 5700 5696 5685 5684 5698 5718 5716 5715 5712 5712 5712 5710 5707 5706 5703 5700 5698 5695 5692 5689 5686 5683 5680 5677 5675 5672 5669 5666 5663 5661 5660 5658 5658 5658 5657
5703 5702 5696 5700 5705 5705 5706 5705 5701 5690 5689 5690 5687 5697 5720 5716 5713 5710 5708 5707 5706 5703 5702 5699 5696 5692 5689 5686 5684 5681 5679 5676 5673 5670 5667 5665 5662 5658 5656 5655 5653 5653 5652 5652
5696 5694 5686 5687 5690 5694 5695 5697 5698 5697 5693 5687 5681 5693 5713 5711 5708 5706 5703 5702 5700 5698 5696 5694 5690 5686 5683 5680 5678 5676 5674 5671 5668 5665 5662 5659 5656 5654 5652 5650 5648 5647 5647 5647
5693 5692 5687 5681 5688 5693 5689 5688 5689 5688 5685 5685 5687 5693 5701 5701 5699 5699 5698 5697 5695 5693 5690 5687 5683 5681 5677 5676 5673 5670 5668 5665 5662 5659 5656 5653 5651 5649 5647 5645 5643 5642 5641 5641
5687 5684 5687 5688 5690 5687 5685 5685 5684 5683 5687 5685 5690 5691 5696 5698 5695 5694 5693 5691 5688 5686 5683 5681 5678 5676 5673 5670 5667 5664 5661 5659 5657 5654 5651 5649 5647 5644 5641 5639 5637 5636 5635 5634
5681 5678 5679 5679 5681 5679 5677 5682 5682 5681 5683 5684 5685 5686 5696 5695 5692 5688 5688 5685 5681 5680 5678 5676 5674 5671 5668 5666 5662 5658 5656 5653 5651 5649 5646 5643 5640 5638 5635 5633 5632 5630 5627 5627
5673 5672 5668 5672 5674 5671 5672 5682 5681 5680 5682 5681 5678 5685 5689 5685 5682 5681 5681 5679 5676 5674 5673 5670 5670 5668 5665 5662 5658 5654 5651 5648 5645 5643 5639 5636 5635 5631 5629 5627 5625 5623 5621 5620
5666 5665 5662 5663 5663 5654 5678 5685 5682 5678 5679 5681 5680 5681 5680 5678 5678 5678 5677 5674 5672 5669 5667 5665 5663 5661 5659 5657 5653 5649 5645 5642 5639 5636 5633 5630 5628 5625 5623 5620 5618 5617 5615 5613
5662 5659 5655 5654 5653 5663 5673 5673 5670 5668 5671 5677 5674 5674 5673 5672 5671 5671 5670 5667 5666 5664 5661 5658 5657 5655 5652 5649 5646 5642 5639 5636 5633 5629 5627 5624 5621 5618 5615 5613 5611 5610 5608 5606
5649 5653 5651 5647 5642 5647 5664 5666 5666 5663 5662 5671 5669 5667 5666 5664 5660 5664 5664 5660 5657 5655 5653 5650 5647 5646 5643 5640 5638 5635 5632 5629 5625 5622 5619 5617 5615 5611 5608 5606 5604 5602 5601 5599
5641 5641 5641 5642 5641 5653 5659 5657 5656 5648 5656 5661 5661 5660 5659 5657 5660 5659 5656 5652 5649 5646 5643 5640 5638 5636 5633 5631 5629 5626 5624 5620 5617 5614 5612 5609 5607 5604 5601 5599 5596 5594 5592 5591
5642 5640 5638 5639 5635 5642 5650 5648 5647 5650 5655 5654 5654 5653 5652 5651 5650 5648 5645 5642 5639 5636 5633 5631 5628 5626 5623 5621 5619 5617 5613 5611 5608 5605 5603 5601 5598 5596 5593 5590 5588 5586 5584 5583
5639 5642 5642 5640 5640 5644 5644 5644 5645 5645 5645 5646 5646 5645 5643 5641 5639 5638 5636 5634 5631 5627 5624 5621 5619 5616 5614 5612 5610 5607 5604 5602 5600 5597 5594 5592 5589 5587 5584 5582 5580 5579 5577 5576
5633 5631 5631 5631 5636 5636 5635 5636 5637 5637 5637 5638 5637 5636 5634 5632 5630 5629 5627 5625 5622 5619 5615 5612 5610 5607 5605 5602 5600 5598 5595 5593 5591 5588 5585 5583 5580 5577 5575 5573 5572 5570 5569 5568
5626 5622 5623 5625 5629 5628 5627 5628 5629 5629 5629 5628 5627 5626 5625 5623 5621 5619 5618 5615 5613 5610 5607 5604 5601 5599 5596 5594 5591 5588 5585 5583 5581 5579 5576 5573 5570 5567 5565 5563 5561 5560 5559 5558
5619 5618 5618 5620 5624 5622 5623 5622 5621 5620 5619 5618 5617 5617 5616 5613 5611 5610 5608 5606 5604 5601 5598 5594 5592 5590 5587 5584 5581 5578 5575 5573 5571 5569 5566 5563 5560 5557 5555 5552 5550 5547 5547 5545